Crookston, MN

10:25 PM CDT on May 24, 2018 (GMT -0500)
Crookston Municipal-Kirkwood

Weather History for KCKN - March, 2013

Change the Weather History Date:

Monday, March 11, 2013

  Actual Average Record
Temperature  
Mean Temperature 10 °F -  
Max Temperature 21 °F 25 °F 57 °F (2016)
Min Temperature 0 °F 9 °F -13 °F (2009)
Degree Days  
Heating Degree Days 54    
Moisture  
Dew Point 7 °F    
Average Humidity 80    
Maximum Humidity 92    
Minimum Humidity 68    
Precipitation  
Precipitation 0.00 in - - ()
Sea Level Pressure  
Sea Level Pressure 29.92 in    
Wind  
Wind Speed 3 mph (North)    
Max Wind Speed 9 mph    
Max Gust Speed -    
Visibility 10 miles    
Events Snow    
Averages and records for this station are not official NWS values.
T = Trace of Precipitation, MM = Missing Value Source: NWS Daily Summary

Daily Weather History Graph

Daily Weather History Graph

Search for Another Location

Airport or City:

Astronomy

Mar. 11, 2013 Rise Set
Actual Time 7:47 AM CDT 7:26 PM CDT
Civil Twilight 7:16 AM CDT 7:57 PM CDT
Nautical Twilight 6:40 AM CDT 8:33 PM CDT
Astronomical Twilight 6:03 AM CDT 9:09 PM CDT
Moon 7:19 AM CDT (3/11) 7:44 PM CDT (3/11)
Length of Visible Light 12h 41m
Length of Day
11h 39m
Waning Crescent, 0% of the Moon is Illuminated
Mar 11
Waning Crescent
Mar 11
New
Mar 19
First Quarter
Mar 27
Full
Apr 2
Last Quarter

Hourly Weather History & Observations

Time (CDT) Temp. Windchill Dew Point Humidity Pressure Visibility Wind Dir Wind Speed Gust Speed Precip Events Conditions
12:14 AM 5.0 °F -4.1 °F 1.4 °F 85% 30.10 in 10.0 mi NNE 4.6 mph - N/A   Clear
12:34 AM 5.0 °F - 1.4 °F 85% 30.09 in 10.0 mi Calm Calm - N/A   Clear
12:55 AM 1.4 °F -9.9 °F -2.2 °F 85% 30.08 in 10.0 mi WNW 5.8 mph - N/A   Clear
1:14 AM -0.4 °F -13.4 °F -4.0 °F 85% 30.08 in 10.0 mi NNW 6.9 mph - N/A   Clear
1:55 AM -0.4 °F - -2.2 °F 92% 30.06 in 10.0 mi Calm Calm - N/A   Clear
2:14 AM -0.4 °F - -4.0 °F 85% 30.06 in 10.0 mi Calm Calm - N/A   Clear
2:34 AM -0.4 °F -12.0 °F -4.0 °F 85% 30.06 in 10.0 mi North 5.8 mph - N/A   Clear
2:55 AM -0.4 °F - -2.2 °F 92% 30.04 in 10.0 mi Calm Calm - N/A   Clear
3:14 AM -0.4 °F -10.4 °F -4.0 °F 85% 30.04 in 10.0 mi North 4.6 mph - N/A   Clear
3:34 AM -0.4 °F -10.4 °F -4.0 °F 85% 30.03 in 10.0 mi North 4.6 mph - N/A   Clear
3:55 AM -0.4 °F -10.4 °F -2.2 °F 92% 30.02 in 10.0 mi North 4.6 mph - N/A   Clear
4:14 AM -0.4 °F -10.4 °F -2.2 °F 92% 30.01 in 10.0 mi North 4.6 mph - N/A   Clear
4:34 AM 3.2 °F -7.8 °F -0.4 °F 85% 30.00 in 10.0 mi North 5.8 mph - N/A   Clear
4:55 AM 3.2 °F -7.8 °F 1.4 °F 92% 29.99 in 10.0 mi NW 5.8 mph - N/A   Clear
5:14 AM 3.2 °F -4.2 °F 1.4 °F 92% 29.98 in 10.0 mi North 3.5 mph - N/A   Clear
5:34 AM 3.2 °F -7.8 °F -0.4 °F 85% 29.98 in 10.0 mi North 5.8 mph - N/A   Clear
5:55 AM 3.2 °F -6.2 °F -0.4 °F 85% 29.98 in 10.0 mi North 4.6 mph - N/A   Mostly Cloudy
6:14 AM 3.2 °F -4.2 °F 1.4 °F 92% 29.97 in 10.0 mi North 3.5 mph - N/A   Overcast
6:35 AM 6.8 °F -0.1 °F 3.2 °F 85% 29.97 in 10.0 mi North 3.5 mph - N/A Snow Light Snow
6:55 AM 6.8 °F -0.1 °F 3.2 °F 85% 29.96 in 10.0 mi North 3.5 mph - N/A   Overcast
7:14 AM 6.8 °F -0.1 °F 3.2 °F 85% 29.96 in 10.0 mi North 3.5 mph - N/A   Overcast
7:35 AM 6.8 °F -0.1 °F 3.2 °F 85% 29.96 in 10.0 mi North 3.5 mph - N/A   Scattered Clouds
7:54 AM 6.8 °F -0.1 °F 3.2 °F 85% 29.96 in 10.0 mi NNE 3.5 mph - N/A   Clear
8:14 AM 8.6 °F 0.1 °F 5.0 °F 85% 29.95 in 10.0 mi ENE 4.6 mph - N/A   Scattered Clouds
8:35 AM 8.6 °F 2.0 °F 5.0 °F 85% 29.95 in 10.0 mi ENE 3.5 mph - N/A   Scattered Clouds
8:54 AM 8.6 °F 2.0 °F 5.0 °F 85% 29.94 in 10.0 mi East 3.5 mph - N/A   Clear
9:14 AM 8.6 °F 0.1 °F 5.0 °F 85% 29.93 in 10.0 mi East 4.6 mph - N/A   Clear
9:35 AM 10.4 °F - 5.0 °F 79% 29.93 in 10.0 mi Calm Calm - N/A   Clear
9:54 AM 10.4 °F 2.2 °F 5.0 °F 79% 29.92 in 10.0 mi East 4.6 mph - N/A   Clear
10:14 AM 12.2 °F 4.3 °F 6.8 °F 79% 29.91 in 10.0 mi East 4.6 mph - N/A   Clear
10:35 AM 12.2 °F - 6.8 °F 79% 29.91 in 10.0 mi Calm Calm - N/A   Clear
10:54 AM 12.2 °F - 6.8 °F 79% 29.91 in 10.0 mi Calm Calm - N/A   Clear
11:14 AM 14.0 °F 6.5 °F 6.8 °F 73% 29.91 in 10.0 mi SE 4.6 mph - N/A   Clear
11:35 AM 14.0 °F 5.1 °F 8.6 °F 79% 29.90 in 10.0 mi SE 5.8 mph - N/A   Clear
11:54 AM 15.8 °F 7.2 °F 6.8 °F 68% 29.90 in 10.0 mi SE 5.8 mph - N/A   Clear
12:14 PM 15.8 °F 8.6 °F 6.8 °F 68% 29.90 in 10.0 mi SSE 4.6 mph - N/A   Clear
12:35 PM 15.8 °F 10.2 °F 8.6 °F 73% 29.89 in 10.0 mi SE 3.5 mph - N/A   Clear
12:54 PM 17.6 °F - 10.4 °F 73% 29.89 in 10.0 mi Calm Calm - N/A   Clear
1:15 PM 17.6 °F - 10.4 °F 73% 29.89 in 10.0 mi Calm Calm - N/A   Clear
1:34 PM 17.6 °F - 10.4 °F 73% 29.89 in 10.0 mi Calm Calm - N/A   Clear
1:54 PM 17.6 °F - 10.4 °F 73% 29.88 in 10.0 mi Calm Calm - N/A   Clear
2:15 PM 19.4 °F - 10.4 °F 68% 29.87 in 10.0 mi Calm Calm - N/A   Clear
2:34 PM 19.4 °F - 12.2 °F 74% 29.86 in 10.0 mi Calm Calm - N/A   Clear
2:54 PM 19.4 °F - 12.2 °F 74% 29.84 in 10.0 mi Calm Calm - N/A   Clear
3:15 PM 19.4 °F - 12.2 °F 74% 29.84 in 10.0 mi Calm Calm - N/A   Clear
3:34 PM 19.4 °F 14.3 °F 12.2 °F 74% 29.84 in 10.0 mi West 3.5 mph - N/A   Scattered Clouds
3:54 PM 21.2 °F 16.4 °F 12.2 °F 68% 29.84 in 10.0 mi West 3.5 mph - N/A   Scattered Clouds
4:15 PM 19.4 °F - 12.2 °F 74% 29.83 in 10.0 mi Calm Calm - N/A   Scattered Clouds
4:34 PM 19.4 °F - 12.2 °F 74% 29.84 in 10.0 mi Calm Calm - N/A   Mostly Cloudy
4:54 PM 19.4 °F 14.3 °F 12.2 °F 74% 29.84 in 10.0 mi WNW 3.5 mph - N/A   Scattered Clouds
5:15 PM 19.4 °F 14.3 °F 12.2 °F 74% 29.84 in 10.0 mi WNW 3.5 mph - N/A   Scattered Clouds
5:34 PM 19.4 °F 14.3 °F 12.2 °F 74% 29.84 in 10.0 mi West 3.5 mph - N/A   Clear
6:15 PM 19.4 °F - 12.2 °F 74% 29.83 in 10.0 mi Calm Calm - N/A   Mostly Cloudy
6:34 PM 21.2 °F - 12.2 °F 68% 29.83 in 10.0 mi Calm Calm - N/A   Overcast
6:54 PM 19.4 °F - 12.2 °F 74% 29.83 in 10.0 mi Calm Calm - N/A   Mostly Cloudy
7:14 PM 19.4 °F - 10.4 °F 68% 29.84 in 10.0 mi Calm Calm - N/A   Mostly Cloudy
7:34 PM 19.4 °F - 12.2 °F 74% 29.85 in 10.0 mi Calm Calm - N/A   Overcast
7:55 PM 19.4 °F - 14.0 °F 80% 29.85 in 10.0 mi Calm Calm - N/A   Overcast
8:14 PM 19.4 °F - 12.2 °F 74% 29.86 in 10.0 mi Calm Calm - N/A   Overcast
8:34 PM 17.6 °F - 14.0 °F 86% 29.86 in 10.0 mi Calm Calm - N/A   Mostly Cloudy
8:55 PM 17.6 °F - 14.0 °F 86% 29.86 in 10.0 mi Calm Calm - N/A   Overcast
9:14 PM 17.6 °F - 14.0 °F 86% 29.86 in 10.0 mi Calm Calm - N/A   Overcast
9:35 PM 17.6 °F 12.3 °F 14.0 °F 86% 29.86 in 10.0 mi North 3.5 mph - N/A   Overcast
9:54 PM 17.6 °F 10.7 °F 12.2 °F 79% 29.87 in 10.0 mi NW 4.6 mph - N/A   Overcast
10:14 PM 17.6 °F 8.2 °F 12.2 °F 79% 29.87 in 10.0 mi NW 6.9 mph - N/A   Overcast
10:35 PM 17.6 °F 9.3 °F 12.2 °F 79% 29.87 in 10.0 mi North 5.8 mph - N/A   Overcast
10:54 PM 17.6 °F 8.2 °F 12.2 °F 79% 29.87 in 10.0 mi North 6.9 mph - N/A   Overcast
11:14 PM 17.6 °F 6.4 °F 12.2 °F 79% 29.87 in 10.0 mi North 9.2 mph - N/A   Overcast
11:35 PM 17.6 °F 7.3 °F 14.0 °F 86% 29.87 in 10.0 mi North 8.1 mph - N/A   Scattered Clouds
11:54 PM 17.6 °F 6.4 °F 14.0 °F 86% 29.88 in 10.0 mi North 9.2 mph - N/A   Mostly Cloudy